This is the latest recevied weather packets stored in our database for station/object KA1BMF-13. If no packets are shown the sender has not sent any weather packets the latest 10 day(s).
| Time | Temp. | Humidity | Pressure | Rain* | Wind** | Luminosity | Snow |
|---|---|---|---|---|---|---|---|
| 1788423018 | 18.89° C | 99% | 1015.3 hPa | 0 mm | - | 0 W/m² | - |
| 1788422418 | 18.89° C | 98% | 1015.4 hPa | 0 mm | - | 0 W/m² | - |
| 1788421819 | 18.89° C | 98% | 1015.4 hPa | 0.25 mm | - | 0 W/m² | - |
| 1788421216 | 18.89° C | 98% | 1015.7 hPa | 0.25 mm | - | 0 W/m² | - |
| 1788420619 | 18.89° C | 98% | 1015.8 hPa | 0.25 mm | - | 0 W/m² | - |
| 1788420019 | 18.89° C | 98% | 1015.9 hPa | 0.51 mm | - | 0 W/m² | - |
| 1788419419 | 18.89° C | 98% | 1015.7 hPa | 1.27 mm | - | 0 W/m² | - |
| 1788418817 | 18.89° C | 98% | 1015.8 hPa | 5.59 mm | - | 0 W/m² | - |
| 1788418217 | 18.89° C | 98% | 1015.8 hPa | 9.4 mm | - | 0 W/m² | - |
| 1788417617 | 18.89° C | 97% | 1015.5 hPa | 9.4 mm | - | 0 W/m² | - |
| 1788417017 | 18.89° C | 97% | 1015.7 hPa | 9.4 mm | - | 0 W/m² | - |
| 1788416417 | 18.89° C | 97% | 1016 hPa | 9.14 mm | - | 0 W/m² | - |
| 1788415817 | 18.89° C | 97% | 1016.8 hPa | 8.38 mm | - | 0 W/m² | - |
| 1788415218 | 18.89° C | 96% | 1017.3 hPa | 4.06 mm | - | 0 W/m² | - |
| 1788414618 | 18.89° C | 95% | 1017.1 hPa | 0.25 mm | - | 0 W/m² | - |
| 1788414018 | 18.89° C | 94% | 1017.2 hPa | 0 mm | - | 0 W/m² | - |
| 1788413418 | 18.89° C | 94% | 1017.3 hPa | 0 mm | - | 0 W/m² | - |
| 1788412818 | 18.89° C | 93% | 1017.5 hPa | 0 mm | - | 0 W/m² | - |
| 1788412219 | 18.89° C | 93% | 1017.6 hPa | 0 mm | - | 0 W/m² | - |
| 1788411619 | 18.89° C | 92% | 1017.7 hPa | 0 mm | - | 0 W/m² | - |
| 1788411016 | 18.89° C | 92% | 1017.8 hPa | 0 mm | - | 0 W/m² | - |
| 1788410419 | 18.89° C | 91% | 1017.9 hPa | 0 mm | - | 0 W/m² | - |
| 1788409819 | 18.89° C | 90% | 1017.9 hPa | 0 mm | - | 0 W/m² | - |
| 1788409216 | 18.89° C | 90% | 1018.1 hPa | 0 mm | - | 0 W/m² | - |
| 1788408617 | 18.89° C | 90% | 1018.2 hPa | 0 mm | - | 0 W/m² | - |
* Rain latest hour (hover to see other rain measurements)
** Current wind speed in m/s (hover to see current wind gust speed)